Location: Newark
(34.1333°N, 7.9667°W)
Time: 16:03:55
(UTC+00:00)

ISS - Visible Passes

Search period start: 25 September 2021 00:00
Search period end: 05 October 2021 00:00
Orbit: 417 x 423 km, 51.6° (Epoch: 25 September)

Date Brightness Start Highest point End Pass type
(mag) Time Alt. Az. Time Alt. Az. Time Alt. Az.
01 Oct -1.2 19:56:53 10° N 19:57:41 13° N 19:57:41 13° N visible
02 Oct -1.3 19:10:17 10° NNE 19:11:07 11° NNE 19:11:57 10° NE visible
03 Oct -2.0 19:57:31 10° NNW 19:59:19 25° NNW 19:59:19 25° NNW visible
04 Oct -2.3 19:10:05 10° NNW 19:12:52 23° NE 19:13:43 21° ENE visible
04 Oct -0.1 20:46:41 10° WNW 20:46:41 10° WNW 20:46:41 10° WNW visible
